TTB YCEM-YMCO

Flight info

Callsign TTB
Flight time 1h 11m
Altitude 5500
Route YCEM YGRL YORB YMCO
Aircraft AEST/L-SDF/C

Departure

Time 2026-04-24 07:00
Airport Coldstream Airport (YCEM)

Arrival

Time 2026-04-24 08:11
Airport Mallacoota Airport (YMCO)
Time Latitude Longitude Altitude Speed Heading
2026-04-24 06:52 -37.72947 145.40973 291 ft 0 kts 171°
2026-04-24 06:55 -37.72952 145.40973 291 ft 4 kts 193°
2026-04-24 06:55 -37.72950 145.40943 288 ft 11 kts 316°
2026-04-24 06:56 -37.72936 145.40914 286 ft 3 kts 276°
2026-04-24 06:56 -37.72976 145.40894 288 ft 10 kts 172°
2026-04-24 06:56 -37.73061 145.40902 291 ft 14 kts 177°
2026-04-24 06:56 -37.73167 145.40914 298 ft 16 kts 173°
2026-04-24 06:57 -37.73233 145.40919 298 ft 7 kts 190°
2026-04-24 06:57 -37.73249 145.40872 298 ft 9 kts 344°
2026-04-24 06:57 -37.73229 145.40867 296 ft 0 kts 354°
2026-04-24 06:59 -37.73034 145.40849 290 ft 71 kts 355°
2026-04-24 07:00 -37.72415 145.40799 467 ft 100 kts 356°
2026-04-24 07:00 -37.71680 145.40727 927 ft 111 kts 355°
2026-04-24 07:00 -37.70880 145.40612 1281 ft 118 kts 356°
2026-04-24 07:00 -37.70114 145.40825 1701 ft 114 kts 32°
2026-04-24 07:01 -37.69649 145.41670 2028 ft 126 kts 73°
2026-04-24 07:01 -37.69831 145.42776 2323 ft 139 kts 112°
2026-04-24 07:01 -37.70292 145.43892 2545 ft 151 kts 113°
2026-04-24 07:01 -37.70803 145.45137 2647 ft 165 kts 113°
2026-04-24 07:02 -37.71404 145.46467 2632 ft 183 kts 116°
2026-04-24 07:02 -37.72087 145.47886 2625 ft 194 kts 118°
2026-04-24 07:02 -37.72806 145.49372 2599 ft 203 kts 117°
2026-04-24 07:02 -37.73545 145.50930 2541 ft 208 kts 116°
2026-04-24 07:03 -37.74273 145.52502 2460 ft 212 kts 116°
2026-04-24 07:03 -37.74966 145.54169 2428 ft 213 kts 108°
2026-04-24 07:03 -37.75305 145.55971 2392 ft 209 kts 92°
2026-04-24 07:03 -37.75390 145.57772 2414 ft 204 kts 86°
2026-04-24 07:04 -37.75366 145.59563 2414 ft 202 kts 84°
2026-04-24 07:04 -37.75309 145.61337 2377 ft 201 kts 85°
2026-04-24 07:04 -37.75302 145.63100 2340 ft 201 kts 87°
2026-04-24 07:04 -37.75334 145.64872 2342 ft 201 kts 89°
2026-04-24 07:05 -37.75360 145.66631 2381 ft 201 kts 86°
2026-04-24 07:05 -37.75298 145.68411 2378 ft 202 kts 83°
2026-04-24 07:05 -37.75320 145.70132 2678 ft 190 kts 95°
2026-04-24 07:05 -37.75691 145.71638 3108 ft 177 kts 112°
2026-04-24 07:06 -37.76299 145.72911 3531 ft 166 kts 117°
2026-04-24 07:06 -37.76702 145.73734 3842 ft 162 kts 119°
2026-04-24 07:06 -37.77704 145.75200 4272 ft 168 kts 131°
2026-04-24 07:06 -37.78536 145.76206 4704 ft 162 kts 131°
2026-04-24 07:07 -37.78982 145.76942 5033 ft 157 kts 116°
2026-04-24 07:07 -37.79483 145.78686 5418 ft 166 kts 104°
2026-04-24 07:07 -37.80140 145.81756 5476 ft 191 kts 100°
2026-04-24 07:08 -37.80350 145.82868 5477 ft 194 kts 101°
2026-04-24 07:08 -37.80636 145.84551 5476 ft 198 kts 98°
2026-04-24 07:08 -37.80882 145.86267 5495 ft 199 kts 97°
2026-04-24 07:08 -37.81129 145.87987 5500 ft 203 kts 98°
2026-04-24 07:09 -37.81384 145.89748 5492 ft 204 kts 98°
2026-04-24 07:09 -37.81643 145.91521 5493 ft 205 kts 98°
2026-04-24 07:09 -37.81913 145.93298 5494 ft 207 kts 98°
2026-04-24 07:09 -37.82194 145.95083 5487 ft 207 kts 98°
2026-04-24 07:10 -37.82473 145.96863 5492 ft 206 kts 99°
2026-04-24 07:10 -37.82750 145.98642 5492 ft 206 kts 99°
2026-04-24 07:10 -37.83032 146.00421 5489 ft 206 kts 99°
2026-04-24 07:10 -37.83311 146.02198 5494 ft 206 kts 99°
2026-04-24 07:11 -37.83595 146.03976 5491 ft 206 kts 99°
2026-04-24 07:11 -37.83878 146.05750 5496 ft 206 kts 99°
2026-04-24 07:11 -37.84164 146.07531 5495 ft 206 kts 100°
2026-04-24 07:11 -37.84541 146.09288 5473 ft 208 kts 114°
2026-04-24 07:12 -37.85376 146.10766 5498 ft 207 kts 127°
2026-04-24 07:12 -37.86249 146.12189 5488 ft 208 kts 126°
2026-04-24 07:12 -37.87135 146.13630 5494 ft 207 kts 126°
2026-04-24 07:12 -37.88026 146.15075 5496 ft 208 kts 126°
2026-04-24 07:13 -37.88861 146.16569 5495 ft 208 kts 118°
2026-04-24 07:13 -37.89507 146.18202 5492 ft 207 kts 113°
2026-04-24 07:13 -37.90082 146.19878 5490 ft 207 kts 111°
2026-04-24 07:13 -37.90637 146.21557 5490 ft 207 kts 110°
2026-04-24 07:14 -37.91193 146.23243 5490 ft 207 kts 110°
2026-04-24 07:14 -37.91748 146.24922 5492 ft 207 kts 110°
2026-04-24 07:14 -37.92296 146.26604 5493 ft 206 kts 108°
2026-04-24 07:14 -37.92699 146.28349 5489 ft 206 kts 100°
2026-04-24 07:15 -37.92943 146.30127 5489 ft 204 kts 96°
2026-04-24 07:15 -37.93136 146.31909 5489 ft 204 kts 95°
2026-04-24 07:15 -37.93309 146.33690 5482 ft 203 kts 94°
2026-04-24 07:15 -37.93464 146.35465 5493 ft 203 kts 94°
2026-04-24 07:16 -37.93600 146.37248 5493 ft 203 kts 92°
2026-04-24 07:16 -37.93715 146.39042 5452 ft 204 kts 92°
2026-04-24 07:16 -37.93815 146.40829 5197 ft 205 kts 91°
2026-04-24 07:16 -37.93901 146.42603 4933 ft 204 kts 91°
2026-04-24 07:17 -37.93977 146.44393 4666 ft 202 kts 91°
2026-04-24 07:17 -37.94047 146.46147 4407 ft 197 kts 91°
2026-04-24 07:17 -37.94110 146.47873 4109 ft 195 kts 91°
2026-04-24 07:17 -37.94175 146.49586 3804 ft 194 kts 91°
2026-04-24 07:18 -37.94240 146.51284 3529 ft 192 kts 91°
2026-04-24 07:18 -37.94304 146.52953 3245 ft 187 kts 91°
2026-04-24 07:18 -37.94370 146.54591 2970 ft 185 kts 91°
2026-04-24 07:18 -37.94443 146.56178 2716 ft 182 kts 92°
2026-04-24 07:19 -37.94515 146.57765 2436 ft 179 kts 91°
2026-04-24 07:19 -37.94575 146.59360 2176 ft 179 kts 91°
2026-04-24 07:19 -37.94628 146.60895 2081 ft 170 kts 91°
2026-04-24 07:19 -37.94672 146.62341 2060 ft 159 kts 92°
2026-04-24 07:20 -37.94748 146.63708 2000 ft 154 kts 97°
2026-04-24 07:20 -37.94999 146.65018 1859 ft 153 kts 103°
2026-04-24 07:20 -37.95270 146.66326 1715 ft 153 kts 104°
2026-04-24 07:20 -37.95573 146.67618 1592 ft 152 kts 106°
2026-04-24 07:21 -37.95875 146.68891 1528 ft 149 kts 105°
2026-04-24 07:21 -37.96184 146.70140 1523 ft 147 kts 106°
2026-04-24 07:21 -37.96484 146.71375 1550 ft 145 kts 105°
2026-04-24 07:21 -37.96790 146.72613 1515 ft 149 kts 106°
2026-04-24 07:22 -37.97101 146.73877 1513 ft 150 kts 105°
2026-04-24 07:22 -37.97397 146.75146 1503 ft 151 kts 102°
2026-04-24 07:22 -37.97636 146.76454 1488 ft 154 kts 100°
2026-04-24 07:22 -37.97836 146.77776 1463 ft 154 kts 98°
2026-04-24 07:23 -37.97993 146.79106 1476 ft 151 kts 96°
2026-04-24 07:23 -37.98141 146.80438 1440 ft 155 kts 96°
2026-04-24 07:23 -37.98245 146.81795 1405 ft 154 kts 89°
2026-04-24 07:23 -37.98136 146.83126 1380 ft 152 kts 79°
2026-04-24 07:24 -37.97919 146.84425 1422 ft 147 kts 76°
2026-04-24 07:24 -37.97620 146.85641 1469 ft 143 kts 68°
2026-04-24 07:24 -37.97188 146.86785 1475 ft 144 kts 64°
2026-04-24 07:24 -37.96754 146.87910 1472 ft 145 kts 65°
2026-04-24 07:25 -37.96425 146.89120 1468 ft 145 kts 79°
2026-04-24 07:25 -37.96355 146.90401 1480 ft 146 kts 92°
2026-04-24 07:25 -37.96463 146.91673 1492 ft 145 kts 97°
2026-04-24 07:25 -37.96589 146.92946 1500 ft 146 kts 94°
2026-04-24 07:26 -37.96671 146.94243 1500 ft 149 kts 93°
2026-04-24 07:26 -37.96771 146.95549 1483 ft 149 kts 95°
2026-04-24 07:26 -37.96897 146.96863 1477 ft 155 kts 95°
2026-04-24 07:26 -37.97028 146.98263 1501 ft 163 kts 97°
2026-04-24 07:27 -37.97193 146.99725 1514 ft 171 kts 97°
2026-04-24 07:27 -37.97373 147.01215 1611 ft 170 kts 98°
2026-04-24 07:27 -37.97560 147.02731 1522 ft 178 kts 95°
2026-04-24 07:27 -37.97567 147.04320 1459 ft 182 kts 81°
2026-04-24 07:28 -37.97195 147.05849 1480 ft 181 kts 66°
2026-04-24 07:28 -37.96598 147.07265 1447 ft 183 kts 60°
2026-04-24 07:28 -37.95953 147.08649 1473 ft 181 kts 61°
2026-04-24 07:28 -37.95352 147.10028 1483 ft 181 kts 63°
2026-04-24 07:29 -37.94750 147.11428 1476 ft 181 kts 62°
2026-04-24 07:29 -37.94131 147.12819 1470 ft 181 kts 59°
2026-04-24 07:29 -37.93416 147.14153 1443 ft 184 kts 57°
2026-04-24 07:29 -37.92704 147.15483 1459 ft 182 kts 57°
2026-04-24 07:30 -37.92016 147.16834 1447 ft 184 kts 59°
2026-04-24 07:30 -37.91421 147.18267 1423 ft 185 kts 67°
2026-04-24 07:30 -37.90914 147.19771 1352 ft 185 kts 67°
2026-04-24 07:30 -37.90399 147.21253 1407 ft 182 kts 66°
2026-04-24 07:31 -37.89877 147.22706 1448 ft 180 kts 67°
2026-04-24 07:31 -37.89370 147.24144 1488 ft 178 kts 67°
2026-04-24 07:31 -37.88895 147.25608 1474 ft 180 kts 70°
2026-04-24 07:31 -37.88459 147.27101 1463 ft 181 kts 72°
2026-04-24 07:32 -37.88056 147.28592 1469 ft 183 kts 72°
2026-04-24 07:32 -37.87602 147.30096 1454 ft 182 kts 67°
2026-04-24 07:32 -37.87005 147.31518 1459 ft 182 kts 60°
2026-04-24 07:32 -37.86325 147.32862 1476 ft 180 kts 59°
2026-04-24 07:33 -37.85666 147.34215 1513 ft 182 kts 60°
2026-04-24 07:33 -37.85014 147.35594 1521 ft 182 kts 59°
2026-04-24 07:33 -37.84331 147.36944 1532 ft 182 kts 59°
2026-04-24 07:33 -37.83731 147.38346 1618 ft 178 kts 70°
2026-04-24 07:34 -37.83481 147.39803 1990 ft 166 kts 86°
2026-04-24 07:34 -37.83472 147.41232 2342 ft 159 kts 90°
2026-04-24 07:34 -37.83500 147.42627 2637 ft 159 kts 90°
2026-04-24 07:34 -37.83534 147.44018 2961 ft 158 kts 90°
2026-04-24 07:35 -37.83581 147.45408 3271 ft 158 kts 90°
2026-04-24 07:35 -37.83633 147.46800 3602 ft 158 kts 90°
2026-04-24 07:35 -37.83683 147.48184 3932 ft 157 kts 90°
2026-04-24 07:35 -37.83740 147.49570 4246 ft 158 kts 90°
2026-04-24 07:36 -37.83798 147.50957 4569 ft 158 kts 90°
2026-04-24 07:36 -37.83856 147.52343 4894 ft 158 kts 90°
2026-04-24 07:36 -37.83910 147.53712 5183 ft 159 kts 90°
2026-04-24 07:36 -37.83962 147.55135 5354 ft 167 kts 90°
2026-04-24 07:37 -37.84014 147.56654 5428 ft 178 kts 90°
2026-04-24 07:37 -37.84066 147.58260 5485 ft 186 kts 90°
2026-04-24 07:37 -37.84118 147.59927 5506 ft 194 kts 90°
2026-04-24 07:37 -37.84168 147.61664 5496 ft 200 kts 90°
2026-04-24 07:38 -37.84218 147.63439 5508 ft 203 kts 90°
2026-04-24 07:38 -37.84266 147.65239 5490 ft 206 kts 90°
2026-04-24 07:38 -37.84317 147.67058 5508 ft 207 kts 90°
2026-04-24 07:38 -37.84366 147.68859 5503 ft 208 kts 90°
2026-04-24 07:39 -37.84411 147.70694 5499 ft 208 kts 90°
2026-04-24 07:39 -37.84456 147.72526 5500 ft 209 kts 90°
2026-04-24 07:39 -37.84501 147.74365 5501 ft 209 kts 90°
2026-04-24 07:39 -37.84547 147.76208 5499 ft 209 kts 90°
2026-04-24 07:40 -37.84592 147.78048 5505 ft 210 kts 90°
2026-04-24 07:40 -37.84636 147.79892 5500 ft 210 kts 90°
2026-04-24 07:40 -37.84682 147.81743 5502 ft 210 kts 90°
2026-04-24 07:40 -37.84725 147.83595 5497 ft 210 kts 90°
2026-04-24 07:41 -37.84763 147.85422 5497 ft 210 kts 88°
2026-04-24 07:41 -37.84689 147.87268 5497 ft 210 kts 84°
2026-04-24 07:41 -37.84587 147.89112 5494 ft 210 kts 84°
2026-04-24 07:41 -37.84482 147.90957 5498 ft 210 kts 84°
2026-04-24 07:42 -37.84377 147.92799 5496 ft 210 kts 84°
2026-04-24 07:42 -37.84271 147.94643 5495 ft 210 kts 84°
2026-04-24 07:42 -37.84164 147.96489 5494 ft 210 kts 84°
2026-04-24 07:42 -37.84057 147.98329 5489 ft 209 kts 84°
2026-04-24 07:43 -37.83948 148.00143 5492 ft 209 kts 84°
2026-04-24 07:43 -37.83838 148.01985 5489 ft 210 kts 84°
2026-04-24 07:43 -37.83730 148.03821 5487 ft 210 kts 84°
2026-04-24 07:43 -37.83619 148.05660 5480 ft 210 kts 84°
2026-04-24 07:44 -37.83507 148.07504 5478 ft 210 kts 84°
2026-04-24 07:44 -37.83395 148.09342 5491 ft 209 kts 84°
2026-04-24 07:44 -37.83284 148.11180 5484 ft 210 kts 84°
2026-04-24 07:44 -37.83173 148.13019 5483 ft 210 kts 84°
2026-04-24 07:45 -37.83059 148.14858 5481 ft 210 kts 84°
2026-04-24 07:45 -37.82944 148.16693 5483 ft 210 kts 84°
2026-04-24 07:45 -37.82830 148.18530 5480 ft 209 kts 84°
2026-04-24 07:45 -37.82716 148.20342 5476 ft 209 kts 84°
2026-04-24 07:46 -37.82601 148.22178 5479 ft 209 kts 84°
2026-04-24 07:46 -37.82486 148.24010 5473 ft 209 kts 84°
2026-04-24 07:46 -37.82371 148.25847 5471 ft 209 kts 84°
2026-04-24 07:46 -37.82255 148.27681 5470 ft 209 kts 84°
2026-04-24 07:47 -37.82140 148.29515 5469 ft 209 kts 84°
2026-04-24 07:47 -37.82025 148.31352 5473 ft 209 kts 84°
2026-04-24 07:47 -37.81908 148.33189 5476 ft 209 kts 84°
2026-04-24 07:47 -37.81792 148.35022 5464 ft 209 kts 84°
2026-04-24 07:48 -37.81675 148.36862 5459 ft 210 kts 84°
2026-04-24 07:48 -37.81557 148.38696 5456 ft 210 kts 84°
2026-04-24 07:48 -37.81439 148.40535 5456 ft 209 kts 84°
2026-04-24 07:48 -37.81323 148.42369 5467 ft 209 kts 84°
2026-04-24 07:49 -37.81207 148.44196 5468 ft 209 kts 84°
2026-04-24 07:49 -37.81092 148.46004 5468 ft 209 kts 84°
2026-04-24 07:49 -37.80974 148.47834 5462 ft 209 kts 84°
2026-04-24 07:49 -37.80857 148.49671 5456 ft 209 kts 84°
2026-04-24 07:50 -37.80769 148.50908 5449 ft 209 kts 82°
2026-04-24 07:50 -37.80499 148.53329 5408 ft 211 kts 81°
2026-04-24 07:50 -37.80281 148.55165 5399 ft 210 kts 81°
2026-04-24 07:50 -37.80063 148.57000 5382 ft 211 kts 81°
2026-04-24 07:51 -37.79847 148.58835 5372 ft 211 kts 81°
2026-04-24 07:51 -37.79626 148.60668 5347 ft 211 kts 81°
2026-04-24 07:51 -37.79407 148.62502 5342 ft 211 kts 81°
2026-04-24 07:51 -37.79187 148.64344 5320 ft 212 kts 81°
2026-04-24 07:52 -37.78971 148.66157 5302 ft 212 kts 81°
2026-04-24 07:52 -37.78750 148.68003 5270 ft 212 kts 81°
2026-04-24 07:52 -37.78527 148.69852 5232 ft 213 kts 81°
2026-04-24 07:52 -37.78303 148.71702 5189 ft 214 kts 81°
2026-04-24 07:53 -37.78080 148.73566 5111 ft 216 kts 81°
2026-04-24 07:53 -37.77931 148.74819 5019 ft 218 kts 81°
2026-04-24 07:53 -37.77709 148.76721 4930 ft 218 kts 81°
2026-04-24 07:53 -37.77486 148.78616 4866 ft 218 kts 81°
2026-04-24 07:54 -37.77264 148.80509 4799 ft 218 kts 81°
2026-04-24 07:54 -37.77043 148.82406 4729 ft 218 kts 81°
2026-04-24 07:54 -37.76823 148.84295 4662 ft 217 kts 81°
2026-04-24 07:54 -37.76604 148.86185 4601 ft 217 kts 81°
2026-04-24 07:55 -37.76387 148.88075 4536 ft 217 kts 81°
2026-04-24 07:55 -37.76171 148.89966 4475 ft 217 kts 81°
2026-04-24 07:55 -37.75958 148.91849 4408 ft 217 kts 81°
2026-04-24 07:55 -37.75745 148.93741 4347 ft 217 kts 81°
2026-04-24 07:56 -37.75533 148.95627 4277 ft 217 kts 81°
2026-04-24 07:56 -37.75339 148.97513 4206 ft 215 kts 83°
2026-04-24 07:56 -37.75203 148.99373 4214 ft 209 kts 84°
2026-04-24 07:56 -37.75079 149.01184 4255 ft 205 kts 84°
2026-04-24 07:57 -37.75007 149.02965 4302 ft 201 kts 87°
2026-04-24 07:57 -37.74983 149.04701 4381 ft 198 kts 88°
2026-04-24 07:57 -37.74960 149.06425 4462 ft 196 kts 88°
2026-04-24 07:57 -37.75026 149.08117 4461 ft 190 kts 99°
2026-04-24 07:58 -37.75359 149.09727 4312 ft 187 kts 105°
2026-04-24 07:58 -37.75728 149.11324 4076 ft 192 kts 105°
2026-04-24 07:58 -37.76157 149.12940 3882 ft 193 kts 109°
2026-04-24 07:58 -37.76624 149.14519 3781 ft 190 kts 109°
2026-04-24 07:59 -37.77073 149.16085 3624 ft 190 kts 108°
2026-04-24 07:59 -37.77485 149.17674 3447 ft 190 kts 105°
2026-04-24 07:59 -37.77833 149.19289 3242 ft 190 kts 103°
2026-04-24 07:59 -37.78150 149.20918 3050 ft 190 kts 101°
2026-04-24 08:00 -37.78374 149.22562 2873 ft 189 kts 96°
2026-04-24 08:00 -37.78513 149.24182 2684 ft 187 kts 95°
2026-04-24 08:00 -37.78622 149.25826 2503 ft 187 kts 92°
2026-04-24 08:00 -37.78641 149.27463 2340 ft 185 kts 88°
2026-04-24 08:01 -37.78612 149.29079 2186 ft 184 kts 88°
2026-04-24 08:01 -37.78599 149.30700 1999 ft 184 kts 87°
2026-04-24 08:01 -37.78530 149.32315 1846 ft 184 kts 85°
2026-04-24 08:01 -37.78393 149.33918 1685 ft 183 kts 82°
2026-04-24 08:02 -37.78250 149.35514 1547 ft 180 kts 83°
2026-04-24 08:02 -37.78126 149.37067 1522 ft 178 kts 84°
2026-04-24 08:02 -37.78038 149.38645 1514 ft 180 kts 88°
2026-04-24 08:02 -37.78006 149.40222 1531 ft 181 kts 86°
2026-04-24 08:03 -37.77950 149.41801 1531 ft 182 kts 87°
2026-04-24 08:03 -37.77912 149.43404 1550 ft 182 kts 88°
2026-04-24 08:03 -37.77766 149.44998 1542 ft 184 kts 77°
2026-04-24 08:03 -37.77416 149.46548 1592 ft 181 kts 70°
2026-04-24 08:04 -37.76957 149.48041 1551 ft 184 kts 66°
2026-04-24 08:04 -37.76427 149.49530 1526 ft 185 kts 64°
2026-04-24 08:04 -37.75850 149.50982 1533 ft 184 kts 62°
2026-04-24 08:04 -37.75296 149.52411 1510 ft 178 kts 63°
2026-04-24 08:05 -37.74759 149.53784 1535 ft 170 kts 62°
2026-04-24 08:05 -37.74216 149.55094 1536 ft 167 kts 60°
2026-04-24 08:05 -37.73679 149.56396 1506 ft 167 kts 62°
2026-04-24 08:05 -37.73164 149.57705 1481 ft 166 kts 60°
2026-04-24 08:06 -37.72635 149.58995 1462 ft 165 kts 60°
2026-04-24 08:06 -37.72085 149.60253 1466 ft 163 kts 60°
2026-04-24 08:06 -37.71549 149.61497 1488 ft 160 kts 58°
2026-04-24 08:06 -37.71001 149.62707 1496 ft 158 kts 59°
2026-04-24 08:07 -37.70471 149.63917 1516 ft 157 kts 59°
2026-04-24 08:07 -37.69944 149.65109 1551 ft 155 kts 57°
2026-04-24 08:07 -37.69334 149.66228 1493 ft 158 kts 48°
2026-04-24 08:07 -37.68540 149.67176 1477 ft 155 kts 39°
2026-04-24 08:08 -37.67737 149.68014 1500 ft 144 kts 37°
2026-04-24 08:08 -37.67029 149.68708 1454 ft 118 kts 38°
2026-04-24 08:08 -37.66407 149.69313 1350 ft 110 kts 35°
2026-04-24 08:09 -37.65317 149.70462 1206 ft 98 kts 36°
2026-04-24 08:09 -37.64725 149.70930 1004 ft 102 kts 22°
2026-04-24 08:09 -37.64055 149.71145 837 ft 98 kts
2026-04-24 08:09 -37.63384 149.71227 743 ft 97 kts 11°
2026-04-24 08:10 -37.62744 149.71433 670 ft 93 kts 16°
2026-04-24 08:10 -37.62112 149.71614 553 ft 94 kts
2026-04-24 08:10 -37.61450 149.71736 420 ft 98 kts
2026-04-24 08:10 -37.60807 149.71897 253 ft 93 kts 12°
2026-04-24 08:11 -37.60188 149.72047 101 ft 83 kts 11°
2026-04-24 08:11 -37.59870 149.72121 89 ft 11 kts 344°
2026-04-24 08:11 -37.59876 149.72131 90 ft 17 kts 212°
2026-04-24 08:11 -37.59952 149.72171 87 ft 14 kts 117°
2026-04-24 08:12 -37.59952 149.72251 88 ft 3 kts 33°
2026-04-24 08:12 -37.59922 149.72271 88 ft 0 kts 28°